LA1HSA-13 Weather Reports


Display with metric or nautical units.
time (UTC)temp
F
wind
direction
speed
MPH
gust
MPH
rain 1hr
in
rain 24hr
in
rain mn
in
humidity
%
barometer
mb
20260505211003 34 0 0.0 0.0 0.00 0.00 0.00 58 1011.5
20260505210003 35 0 0.0 0.0 0.00 0.00 0.00 56 1011.5
20260505205003 36 0 0.0 2.0 0.00 0.00 0.00 54 1011.3
20260505204003 36 90 1.0 2.0 0.00 0.00 0.00 52 1011.1
20260505203003 36 0 0.0 2.0 0.00 0.00 0.00 54 1010.8
20260505202003 36 0 0.0 0.0 0.00 0.00 0.00 55 1010.9
20260505201003 37 0 0.0 2.0 0.00 0.00 0.00 52 1011.0
20260505200004 38 0 0.0 4.0 0.00 0.00 0.00 47 1010.9
20260505195003 38 0 0.0 2.0 0.00 0.00 0.00 52 1010.6
20260505194003 39 0 0.0 2.0 0.00 0.00 0.00 48 1010.6
20260505193003 40 0 0.0 2.0 0.00 0.00 0.00 47 1010.8
20260505192003 41 78 1.0 4.0 0.00 0.00 0.00 44 1010.7
20260505191003 42 0 0.0 2.0 0.00 0.00 0.00 43 1010.4
20260505190003 44 0 0.0 4.0 0.00 0.02 0.00 40 1010.3
20260505185003 46 58 1.0 4.0 0.00 0.02 0.00 37 1010.3
20260505184003 46 53 2.0 6.0 0.00 0.02 0.00 36 1010.4
20260505183003 47 67 1.0 7.0 0.00 0.02 0.00 35 1010.2
20260505182003 47 47 4.0 8.0 0.00 0.02 0.00 34 1010.0
20260505181003 47 56 2.0 7.0 0.00 0.02 0.00 34 1010.1
20260505180003 48 43 2.0 7.0 0.00 0.02 0.00 33 1010.1
20260505175003 48 50 4.0 9.0 0.00 0.02 0.00 32 1010.0
20260505174003 48 34 4.0 11.0 0.00 0.02 0.00 32 1010.0
20260505173003 49 34 4.0 8.0 0.00 0.02 0.00 31 1010.0
20260505172004 49 47 2.0 8.0 0.00 0.02 0.00 31 1009.8
20260505171003 49 59 4.0 8.0 0.00 0.02 0.00 31 1009.9
20260505170004 49 58 4.0 8.0 0.00 0.02 0.00 33 1009.8
20260505165003 49 57 4.0 8.0 0.00 0.02 0.00 33 1010.1
20260505164003 47 63 4.0 8.0 0.00 0.02 0.00 33 1010.1
20260505163003 46 61 2.0 8.0 0.00 0.02 0.00 36 1009.9
20260505162003 46 70 4.0 13.0 0.00 0.02 0.00 36 1009.9
20260505161003 46 72 5.0 14.0 0.00 0.02 0.00 36 1010.1
20260505153003 51 29 6.0 14.0 0.00 0.02 0.00 26 1009.7
20260505152003 49 34 4.0 14.0 0.00 0.02 0.00 29 1009.7
20260505151003 50 19 7.0 15.0 0.00 0.02 0.00 26 1009.5
20260505125003 49 64 5.0 11.0 0.00 0.02 0.00 32 1009.6
20260505124003 48 68 5.0 9.0 0.00 0.02 0.00 31 1009.4
20260505123003 47 54 3.0 15.0 0.00 0.02 0.00 31 1009.4
20260505122003 48 49 2.0 8.0 0.00 0.02 0.00 29 1009.2
20260505121003 50 349 4.0 9.0 0.00 0.02 0.00 32 1009.4
20260505120004 51 5 3.0 9.0 0.00 0.02 0.00 34 1009.3
20260505115003 50 2 4.0 8.0 0.00 0.02 0.00 32 1009.6
20260505114003 51 353 3.0 7.0 0.00 0.02 0.00 32 1009.3
20260505113003 49 66 2.0 9.0 0.00 0.02 0.00 35 1009.3
20260505112003 48 66 4.0 8.0 0.00 0.02 0.00 38 1009.2
20260505111003 47 48 3.0 11.0 0.00 0.02 0.00 33 1009.4
20260505102003 46 25 2.0 7.0 0.00 0.02 0.00 37 1009.6
20260505101004 45 58 4.0 7.0 0.00 0.02 0.00 38 1009.9
20260505100003 45 0 0.0 4.0 0.00 0.02 0.00 38 1009.7
20260505095003 46 18 2.0 6.0 0.00 0.02 0.00 41 1009.9
20260505094003 45 51 1.0 7.0 0.00 0.02 0.00 39 1009.7
20260505093004 45 68 4.0 8.0 0.00 0.02 0.00 43 1009.8
20260505092003 44 52 3.0 11.0 0.00 0.02 0.00 44 1009.7
20260505091003 46 353 4.0 8.0 0.00 0.02 0.00 42 1009.7
20260505090004 46 45 2.0 7.0 0.00 0.02 0.00 44 1009.7
20260505085003 43 49 3.0 7.0 0.00 0.02 0.00 44 1009.8
20260505084003 44 64 4.0 11.0 0.00 0.02 0.00 41 1009.7
20260505083003 44 84 2.0 8.0 0.00 0.02 0.00 42 1009.6
20260505082003 45 48 2.0 7.0 0.00 0.02 0.00 46 1009.9
20260505081003 43 36 4.0 8.0 0.00 0.02 0.00 42 1009.8
20260505080003 45 55 4.0 9.0 0.00 0.02 0.00 46 1009.5
20260505075003 43 72 4.0 7.0 0.00 0.02 0.00 45 1009.5
20260505074003 43 35 4.0 7.0 0.00 0.02 0.00 46 1009.4
20260505073003 43 55 2.0 8.0 0.00 0.02 0.00 49 1009.6
20260505072003 42 48 2.0 8.0 0.00 0.02 0.00 48 1009.7
20260505071003 42 40 2.0 6.0 0.00 0.02 0.00 49 1009.3
20260505070003 42 74 3.0 9.0 0.00 0.02 0.00 50 1009.4
20260505065003 41 71 1.0 4.0 0.00 0.02 0.00 49 1009.3
20260505064003 40 74 3.0 7.0 0.00 0.02 0.00 52 1009.0
20260505063003 40 92 2.0 6.0 0.00 0.02 0.00 53 1009.3
20260505062003 40 70 2.0 4.0 0.00 0.02 0.00 54 1009.4
20260505061003 39 67 1.0 4.0 0.00 0.02 0.00 56 1009.3
20260505060003 38 80 2.0 4.0 0.00 0.02 0.00 56 1009.1
20260505055003 37 0 0.0 4.0 0.00 0.02 0.00 61 1009.2
20260505054003 37 38 2.0 4.0 0.00 0.02 0.00 61 1009.1
20260505053003 36 51 2.0 2.0 0.00 0.02 0.00 60 1009.3
20260505052003 35 66 1.0 2.0 0.00 0.02 0.00 62 1009.1
20260505051003 35 0 0.0 2.0 0.00 0.02 0.00 65 1009.2
20260505041003 30 0 0.0 4.0 0.00 0.02 0.00 77 1008.8
20260505040004 31 0 0.0 2.0 0.00 0.02 0.00 74 1008.6
20260505035003 32 0 0.0 2.0 0.00 0.02 0.00 70 1008.5
20260505034003 32 0 0.0 4.0 0.00 0.02 0.00 72 1008.3
20260505033003 31 112 1.0 2.0 0.00 0.02 0.00 73 1008.2
20260505032003 31 0 0.0 2.0 0.00 0.02 0.00 75 1008.1
20260505031003 31 0 0.0 2.0 0.00 0.02 0.00 73 1008.3
20260505030003 30 0 0.0 2.0 0.00 0.02 0.00 75 1008.2
20260505025004 30 176 1.0 2.0 0.00 0.02 0.00 77 1007.9
20260505024003 31 0 0.0 0.0 0.00 0.02 0.00 74 1007.8
20260505023003 31 0 0.0 0.0 0.00 0.02 0.00 72 1007.8
20260505022003 32 0 0.0 0.0 0.00 0.02 0.00 71 1007.9
20260505021003 32 0 0.0 2.0 0.00 0.02 0.00 69 1007.6
20260505020003 33 0 0.0 2.0 0.00 0.02 0.00 67 1007.7
20260505015003 34 114 1.0 4.0 0.00 0.02 0.00 65 1007.3
20260505014003 33 0 0.0 2.0 0.00 0.02 0.00 68 1007.6
20260505013003 34 0 0.0 4.0 0.00 0.02 0.00 66 1007.4
20260505012003 35 66 2.0 6.0 0.00 0.02 0.00 65 1007.3
20260505011003 35 71 2.0 9.0 0.00 0.02 0.00 65 1007.1
20260505010003 35 43 3.0 11.0 0.00 0.02 0.00 64 1006.9
20260505005004 36 37 6.0 11.0 0.00 0.02 0.00 63 1006.8
20260505004003 36 42 5.0 11.0 0.00 0.02 0.00 64 1006.9
20260505003003 36 51 3.0 9.0 0.00 0.02 0.00 66 1006.8
20260505002003 35 51 2.0 4.0 0.00 0.02 0.00 68 1006.8
20260505001003 36 66 2.0 6.0 0.00 0.02 0.00 67 1006.9
20260505000003 36 50 4.0 7.0 0.00 0.02 0.00 67 1006.6
20260504235003 37 53 3.0 7.0 0.00 0.02 0.00 68 1006.8
20260504234003 37 50 4.0 8.0 0.00 0.02 0.00 69 1006.9
20260504233003 37 39 2.0 8.0 0.00 0.02 0.00 71 1006.8
20260504232003 37 14 4.0 7.0 0.00 0.02 0.00 78 1006.7
20260504231003 37 4 1.0 4.0 0.00 0.02 0.00 79 1006.8
20260504230004 36 8 2.0 4.0 0.00 0.02 0.00 81 1006.7
20260504225003 36 0 0.0 4.0 0.00 0.02 0.00 84 1006.7
20260504224003 36 0 0.0 0.0 0.00 0.02 0.00 87 1006.7
20260504223004 36 0 0.0 0.0 0.00 0.02 0.00 89 1006.7
20260504222003 37 0 0.0 2.0 0.00 0.02 0.00 87 1006.7
20260504221003 38 0 0.0 2.0 0.00 0.02 0.00 86 1006.5
20260504220022 37 0 0.0 0.0 0.00 0.02 0.00 88 1006.3
20260504215003 38 0 0.0 2.0 0.00 0.02 0.02 85 1006.3
20260504214003 39 0 0.0 6.0 0.00 0.02 0.02 83 1006.2
20260504213003 40 27 2.0 7.0 0.00 0.02 0.02 82 1006.1
20260504212003 39 48 4.0 8.0 0.00 0.02 0.02 84 1005.9